Regional Weather Roundup
Issued by NWS Newport/Morehead, NC

Current Version | Previous Version | Text Only | Print | Product List | Glossary Off
Versions: 1 2 3 4 5 6 7 8 9 10 11 12 13 14 15 16 17 18 19 20 21 22 23 24 25 26 27 28 29 30 31 32 33 34 35 36 37 38 39 40 41 42 43 44 45 46 47 48 49 50
000 ASUS42 KMHX 040413 RWRMHX WEATHER ROUNDUP FOR EASTERN NORTH CAROLINA NATIONAL WEATHER SERVICE NEWPORT/MOREHEAD CITY NC 1200 AM EDT FRI SEP 04 2015 NOTE: "FAIR" INDICATES FEW OR NO CLOUDS BELOW 12,000 FEET WITH NO SIGNIFICANT WEATHER AND/OR OBSTRUCTIONS TO VISIBILITY NCZ015>017-031-032-045>047-102-103-040500- NORTH COAST CITY SKY/WX TMP DP RH WIND PRES REMARKS EDENTON PTCLDY 74 71 91 N3 29.90S ELIZABETH CITY PTCLDY 71 70 96 CALM 29.90S FOG KITTY HAWK CLEAR 77 72 84 SW3 29.89S MANTEO CLEAR 78 73 85 W5 29.91S $$ NCZ045>047-081-094-103-104-040500- CENTRAL COAST CITY SKY/WX TMP DP RH WIND PRES REMARKS FRISCO CLEAR 75 72 90 W3 29.91R SWANQUARTER N/A 77 N/A N/A NW1 29.85S $$ NCZ095-097-098-100-101-040500- SOUTHERN COAST CITY SKY/WX TMP DP RH WIND PRES REMARKS BEAUFORT CLEAR 77 75 93 NW3 29.90S CEDAR ISLAND N/A 79 N/A N/A SW3 29.94S JACKSONVILLE PTCLDY 75 71 87 NW3 29.90S PINEY ISLAND CLEAR N/A N/A N/A W6 29.90S WILMINGTON MOCLDY 74 70 87 CALM 29.91R $$ NCZ011>013-027>030-043-044-078>080-089-090>093-098-040500- COASTAL PLAIN CITY SKY/WX TMP DP RH WIND PRES REMARKS AHOSKIE MOCLDY 72 71 96 CALM 29.91S FOG CLINTON CLEAR 73 71 96 CALM 29.92S ELIZABETHTOWN CLEAR 75 71 86 CALM 29.92S GOLDSBORO PTCLDY 74 72 91 CALM 29.90S GREENVILLE PTCLDY 73 73 100 CALM 29.93S FOG HAVELOCK CLEAR 74 71 91 CALM 29.92R KENANSVILLE N/A 71 70 97 CALM 29.93S FOG KINSTON PTCLDY 73 72 96 CALM 29.92S FOG NEW BERN CLEAR 74 71 91 CALM 29.92S RICHLANDS PTCLDY 73 68 83 CALM 29.91S ROCKY MOUNT PTCLDY 73 72 96 CALM 29.91S FOG WASHINGTON PTCLDY 73 71 96 CALM 29.91R WHITEVILLE PTCLDY 71 69 92 CALM 29.91S $$ AMZ130-135-150-152-154-156-158-170-250-252-270-ANZ085-086-088-633-658-670-040500- MARINE OBSERVATIONS STATION/POSITION TIME TEMP WIND PRES WAVE SWELL AIR SEA DIR/SP/G HT/PER HT/PER (UTC) (F) (DEG/KT/KT) (MB) (FT/S) (FT/S) CHESAPEAKE LIGHT 0400 80 230/ 7/ 7 1012.8 64 E VA BEACH 0350 79 79 250/ 6/ 6 1011.9 1/12 2/12 DUCK 0300 80 80 220/ 4/ 5 1011.5 2 E DUCK 0311 80 N/A 1/13 OREGON INLET 0300 81 83 240/ 5/ 7 1012.2 13E OREGON INLT 0400 81 N/A 1/11 HATTERAS CG 0300 79 84 230/ 5/ 5 1012.3 DIAMOND BUOY 0350 81 85 300/ 8/ 10 1012.7 1/11 2/11 CAPE LOOKOUT 0400 80 270/ 3/ 3 1012.4 BEAUFORT LAB 0300 80 83 280/ 2/ 6 1011.9 30 SE NEW RVR IN 0308 81 81 290/ 6/ 8 1012.7 30 SE NEW RVR IN 0325 81 N/A 2/ 4 27 SE WRIGHTSVLE 0300 76 82 310/ 4/ 6 N/A 5 SE WRIGHTSVLE 0308 78 82 330/ 6/ 8 1012.3 225 S CAPE HAT 0350 82 84 CALM / 2 1013.2 2/13 2/13 41 SE CHARLESTON 0350 81 84 240/ 2/ 4 1012.8 2/ 4 2/ 4 $$

USA.gov is the U.S. government's official web portal to all federal, state and local government web resources and services.